{"data":{"norad_id":40482,"intl_designator":"2015-011A","name":"MMS 1","alt_names":[],"object_type":"PAYLOAD","status":"ACTIVE","operator":null,"country":"US","launch_date":"2015-03-13","launch_site_code":"AFETR","launch_vehicle":null,"mission":null,"orbit_class":"UNKNOWN","rcs_meters":3.2865,"size_class":null,"mass_kg":null,"dimensions":null,"purposes":["science"],"wikipedia_slug":null,"has_3d_model":false,"image_url":null,"decayed_at":null,"tle_current":{"epoch":"2026-05-25T06:00:02.000160Z","epoch_age_seconds":56546,"freshness":"FRESH","line1":"1 40482U 15011A   26145.25002315 -.00000131  00000+0  00000+0 0  9996","line2":"2 40482  71.8170 349.1070 8340333 166.9233 118.7011  0.28348037  1377","mean_motion":0.28348037,"eccentricity":0.8340333,"inclination_deg":71.817,"raan_deg":349.107,"arg_perigee_deg":166.9233,"mean_anomaly_deg":118.7011,"bstar":0,"rev_number":137,"period_min":5079.716807199,"perigee_km":9867.651918529,"apogee_km":173147.74295877,"semimajor_km":97885.834438649,"source":"CELESTRAK","updated_at":"2026-05-25T13:38:24.644038Z"}}}